Location: Unspecified
(49.2170°N, 0.0000°E)
Time: 15:31:45
(UTC+00:00)

SR - Pass Details

Date: 25 January 2021
Orbit: 573 x 882 km, 66.7° (Epoch: 05 March)

Event Time Altitude Azimuth Distance (km) Brightness Sun altitude
Exits shadow 04:42:12 61° 53° (NE) 829 ? -28.8°
Drops below altitude 10° 04:46:41 10° 38° (NE) 2,330 ? -28.1°
Sets 04:49:12 0° 37° (NE) 3,311 ? -27.7°
